Location: PSU-Greenbush Astrophysical Observatory
(37.5140°N, 94.9880°W)
Time: 05:33:52
(UTC-06:00)

deb Explorer IX - Pass Details

Date: 24 January 2020
Orbit: 549 x 1099 km, 38.8° (Epoch: 22 February)

Event Time Altitude Azimuth Distance (km) Brightness Sun altitude
Rises 20:29:15 0° 211° (SSW) 3,603 ? -34.5°
Reaches altitude 10° 20:32:08 10° 200° (SSW) 2,738 ? -35.1°
Enters shadow 20:33:26 15° 192° (SSW) 2,396 ? -35.3°
Maximum altitude 20:37:45 29° 143° (SE) 1,826 - -36.2°
Drops below altitude 10° 20:43:46 10° 87° (E) 2,936 - -37.4°
Sets 20:46:56 0° 77° (ENE) 3,908 - -38.0°
